| time (UTC) | temp F | wind direction | speed knots | gust knots | rain 1hr in | rain 24hr in | rain mn in | humidity % | barometer mb |
| 20260502163241 | 67 | 11 | 7.0 | 7.8 | 0.00 | 0.00 | 0.00 | 65 | 1018.5 |
| 20260502162737 | 68 | 349 | 6.1 | 7.0 | 0.00 | 0.00 | 0.00 | 68 | 1018.4 |
| 20260502162229 | 67 | 4 | 6.1 | 8.7 | 0.00 | 0.00 | 0.00 | 69 | 1018.4 |
| 20260502161726 | 67 | 331 | 2.6 | 2.6 | 0.00 | 0.00 | 0.00 | 71 | 1018.4 |
| 20260502161222 | 67 | 326 | 2.6 | 4.3 | 0.00 | 0.00 | 0.00 | 70 | 1018.3 |
| 20260502160721 | 66 | 16 | 5.2 | 7.0 | 0.00 | 0.00 | 0.00 | 71 | 1018.3 |
| 20260502160219 | 66 | 14 | 7.0 | 8.7 | 0.00 | 0.00 | 0.00 | 72 | 1018.3 |
| 20260502152143 | 65 | 40 | 1.7 | 2.6 | 0.00 | 0.00 | 0.00 | 77 | 1018.0 |
| 20260502151641 | 65 | 24 | 4.3 | 5.2 | 0.00 | 0.00 | 0.00 | 77 | 1018.0 |
| 20260502151138 | 65 | 33 | 5.2 | 7.0 | 0.00 | 0.00 | 0.00 | 77 | 1018.0 |
| 20260502150635 | 65 | 15 | 5.2 | 6.1 | 0.00 | 0.00 | 0.00 | 77 | 1018.2 |
| 20260502150131 | 65 | 40 | 3.5 | 4.3 | 0.00 | 0.00 | 0.00 | 81 | 1018.1 |
| 20260502130520 | 58 | 17 | 2.6 | 4.3 | 0.00 | 0.00 | 0.00 | 92 | 1017.0 |
| 20260502123503 | 56 | 49 | 4.3 | 5.2 | 0.00 | 0.00 | 0.00 | 93 | 1016.6 |
| 20260502123000 | 56 | 46 | 0.9 | 1.7 | 0.00 | 0.00 | 0.00 | 93 | 1016.5 |
| 20260502122456 | 56 | 8 | 5.2 | 7.0 | 0.00 | 0.00 | 0.00 | 93 | 1016.3 |
| 20260502121954 | 56 | 27 | 5.2 | 7.0 | 0.00 | 0.00 | 0.00 | 93 | 1016.2 |
| 20260502121451 | 55 | 0 | 5.2 | 6.1 | 0.00 | 0.00 | 0.00 | 94 | 1016.3 |
| 20260502120948 | 55 | 17 | 3.5 | 5.2 | 0.00 | 0.00 | 0.00 | 94 | 1016.1 |
| 20260502120444 | 55 | 34 | 2.6 | 2.6 | 0.00 | 0.00 | 0.00 | 94 | 1016.1 |
| 20260502115439 | 55 | 35 | 4.3 | 6.1 | 0.00 | 0.00 | 0.00 | 94 | 1015.9 |
| 20260502114935 | 55 | 23 | 1.7 | 1.7 | 0.00 | 0.00 | 0.00 | 94 | 1015.9 |
| 20260502114432 | 55 | 356 | 3.5 | 5.2 | 0.00 | 0.00 | 0.00 | 94 | 1015.7 |
| 20260502113929 | 55 | 31 | 6.1 | 7.0 | 0.00 | 0.00 | 0.00 | 94 | 1015.7 |
| 20260502113426 | 55 | 52 | 1.7 | 2.6 | 0.00 | 0.00 | 0.00 | 94 | 1015.4 |
| 20260502112925 | 55 | 30 | 2.6 | 2.6 | 0.00 | 0.00 | 0.00 | 94 | 1015.7 |
| 20260502112422 | 55 | 25 | 2.6 | 2.6 | 0.00 | 0.00 | 0.00 | 93 | 1015.5 |
| 20260502111920 | 55 | 10 | 4.3 | 5.2 | 0.00 | 0.00 | 0.00 | 93 | 1015.4 |
| 20260502111416 | 56 | 37 | 4.3 | 5.2 | 0.00 | 0.00 | 0.00 | 92 | 1015.3 |
| 20260502110914 | 56 | 18 | 3.5 | 5.2 | 0.00 | 0.00 | 0.00 | 91 | 1015.1 |
| 20260502110412 | 56 | 357 | 3.5 | 4.3 | 0.00 | 0.00 | 0.00 | 90 | 1015.1 |
| 20260502105909 | 56 | 106 | 0.9 | 1.7 | 0.00 | 0.00 | 0.00 | 90 | 1015.1 |
| 20260502105406 | 56 | 337 | 4.3 | 7.0 | 0.00 | 0.00 | 0.00 | 91 | 1014.9 |
| 20260502104904 | 56 | 95 | 0.9 | 0.9 | 0.00 | 0.00 | 0.00 | 91 | 1014.9 |
| 20260502104401 | 56 | 34 | 4.3 | 5.2 | 0.00 | 0.00 | 0.00 | 91 | 1015.0 |
| 20260502103858 | 56 | 50 | 0.9 | 0.9 | 0.00 | 0.00 | 0.00 | 92 | 1014.9 |
| 20260502103355 | 56 | 28 | 2.6 | 4.3 | 0.00 | 0.00 | 0.00 | 93 | 1014.7 |
| 20260502102852 | 56 | 30 | 1.7 | 1.7 | 0.00 | 0.00 | 0.00 | 94 | 1014.8 |
| 20260502102349 | 56 | 6 | 0.0 | 0.9 | 0.00 | 0.00 | 0.00 | 95 | 1014.6 |
| 20260502101846 | 56 | 22 | 0.9 | 0.9 | 0.00 | 0.00 | 0.00 | 95 | 1014.5 |
| 20260502101345 | 56 | 35 | 1.7 | 2.6 | 0.00 | 0.00 | 0.00 | 95 | 1014.5 |
| 20260502100842 | 56 | 13 | 1.7 | 1.7 | 0.00 | 0.00 | 0.00 | 95 | 1014.5 |
| 20260502100342 | 56 | 27 | 2.6 | 2.6 | 0.00 | 0.00 | 0.00 | 95 | 1014.3 |
| 20260502091315 | 56 | 14 | 5.2 | 8.7 | 0.00 | 0.00 | 0.00 | 94 | 1013.5 |
| 20260502090813 | 56 | 359 | 2.6 | 4.3 | 0.00 | 0.00 | 0.00 | 94 | 1013.4 |
| 20260502090309 | 57 | 45 | 4.3 | 5.2 | 0.00 | 0.00 | 0.00 | 94 | 1013.4 |
| 20260502071205 | 57 | 12 | 5.2 | 7.0 | 0.00 | 0.00 | 0.00 | 98 | 1013.3 |
| 20260502070703 | 57 | 32 | 5.2 | 6.1 | 0.00 | 0.00 | 0.00 | 98 | 1013.4 |
| 20260502070200 | 57 | 37 | 3.5 | 5.2 | 0.00 | 0.00 | 0.00 | 98 | 1013.3 |
| 20260502065659 | 57 | 327 | 5.2 | 6.1 | 0.00 | 0.00 | 0.00 | 99 | 1013.2 |
| 20260502065156 | 57 | 11 | 2.6 | 5.2 | 0.00 | 0.00 | 0.00 | 99 | 1013.0 |
| 20260502064655 | 57 | 56 | 1.7 | 2.6 | 0.00 | 0.00 | 0.00 | 99 | 1013.1 |
| 20260502064151 | 57 | 45 | 3.5 | 5.2 | 0.00 | 0.00 | 0.00 | 99 | 1013.1 |
| 20260502063649 | 57 | 2 | 1.7 | 1.7 | 0.00 | 0.00 | 0.00 | 99 | 1013.2 |
| 20260502063147 | 57 | 56 | 0.9 | 1.7 | 0.00 | 0.00 | 0.00 | 99 | 1013.1 |
| 20260502062643 | 57 | 53 | 4.3 | 6.1 | 0.00 | 0.00 | 0.00 | 99 | 1013.1 |
| 20260502062141 | 57 | 5 | 2.6 | 4.3 | 0.00 | 0.00 | 0.00 | 99 | 1013.1 |
| 20260502061639 | 57 | 9 | 4.3 | 6.1 | 0.00 | 0.00 | 0.00 | 99 | 1013.2 |
| 20260502061137 | 57 | 355 | 2.6 | 2.6 | 0.00 | 0.00 | 0.00 | 99 | 1013.1 |
| 20260502060636 | 57 | 324 | 7.8 | 11.3 | 0.00 | 0.00 | 0.00 | 99 | 1013.0 |
| 20260502060133 | 57 | 15 | 4.3 | 11.3 | 0.00 | 0.00 | 0.00 | 99 | 1013.0 |
| 20260502055631 | 57 | 59 | 3.5 | 5.2 | 0.00 | 0.00 | 0.00 | 99 | 1012.9 |
| 20260502055129 | 56 | 5 | 4.3 | 6.1 | 0.00 | 0.00 | 0.00 | 99 | 1013.0 |
| 20260502054628 | 56 | 19 | 7.8 | 8.7 | 0.00 | 0.00 | 0.00 | 99 | 1013.0 |
| 20260502054125 | 56 | 329 | 4.3 | 8.7 | 0.00 | 0.00 | 0.00 | 99 | 1013.0 |
| 20260502053622 | 56 | 35 | 5.2 | 8.7 | 0.00 | 0.00 | 0.00 | 99 | 1013.1 |
| 20260502053119 | 56 | 39 | 5.2 | 6.1 | 0.00 | 0.00 | 0.00 | 99 | 1013.1 |
| 20260502052617 | 56 | 352 | 7.0 | 11.3 | 0.00 | 0.00 | 0.00 | 99 | 1013.1 |
| 20260502052115 | 56 | 65 | 6.1 | 7.8 | 0.00 | 0.00 | 0.00 | 99 | 1013.1 |
| 20260502051613 | 56 | 15 | 4.3 | 6.1 | 0.00 | 0.00 | 0.00 | 99 | 1013.2 |
| 20260502051111 | 56 | 37 | 3.5 | 4.3 | 0.00 | 0.00 | 0.00 | 99 | 1013.2 |
| 20260502050607 | 56 | 340 | 7.0 | 9.6 | 0.00 | 0.00 | 0.00 | 99 | 1013.0 |
| 20260502050104 | 56 | 23 | 7.0 | 8.7 | 0.00 | 0.00 | 0.00 | 99 | 1013.1 |
| 20260502045600 | 56 | 348 | 6.1 | 8.7 | 0.00 | 1.69 | 1.69 | 99 | 1013.1 |
| 20260502045058 | 56 | 13 | 9.6 | 12.2 | 0.00 | 1.69 | 1.69 | 99 | 1013.1 |
| 20260502044554 | 56 | 339 | 6.1 | 7.8 | 0.00 | 1.69 | 1.69 | 99 | 1013.1 |
| 20260502044051 | 57 | 4 | 8.7 | 12.2 | 0.00 | 1.69 | 1.69 | 99 | 1013.3 |
| 20260502043548 | 57 | 48 | 3.5 | 5.2 | 0.00 | 1.69 | 1.69 | 99 | 1013.1 |
| 20260502043044 | 57 | 359 | 6.1 | 7.0 | 0.00 | 1.69 | 1.69 | 99 | 1013.1 |
| 20260502042539 | 57 | 20 | 6.1 | 7.8 | 0.00 | 1.69 | 1.69 | 99 | 1013.0 |
| 20260502042037 | 57 | 26 | 2.6 | 2.6 | 0.00 | 1.69 | 1.69 | 99 | 1013.0 |
| 20260502041535 | 57 | 17 | 3.5 | 4.3 | 0.05 | 1.69 | 1.69 | 99 | 1013.2 |
| 20260502041031 | 57 | 11 | 5.2 | 6.1 | 0.05 | 1.69 | 1.69 | 99 | 1012.9 |
| 20260502040528 | 57 | 357 | 3.5 | 4.3 | 0.00 | 1.68 | 1.68 | 99 | 1012.9 |
| 20260502040025 | 58 | 81 | 2.6 | 4.3 | 0.00 | 1.68 | 1.68 | 99 | 1013.0 |
| 20260502035521 | 58 | 6 | 6.1 | 7.8 | 0.00 | 1.68 | 1.68 | 99 | 1012.8 |
| 20260502035019 | 58 | 21 | 3.5 | 5.2 | 0.00 | 1.68 | 1.68 | 99 | 1012.5 |
| 20260502034516 | 58 | 12 | 2.6 | 2.6 | 0.00 | 1.68 | 1.68 | 99 | 1012.4 |
| 20260502034015 | 58 | 31 | 6.1 | 7.8 | 0.00 | 1.68 | 1.68 | 99 | 1012.3 |
| 20260502033513 | 58 | 13 | 4.3 | 6.1 | 0.00 | 1.68 | 1.68 | 99 | 1012.0 |
| 20260502033010 | 58 | 12 | 3.5 | 5.2 | 0.00 | 1.68 | 1.68 | 99 | 1012.3 |
| 20260502032505 | 58 | 14 | 2.6 | 5.2 | 0.00 | 1.68 | 1.68 | 99 | 1011.9 |
| 20260502032003 | 58 | 39 | 5.2 | 6.1 | 0.00 | 1.68 | 1.68 | 99 | 1011.6 |
| 20260502031500 | 58 | 8 | 4.3 | 5.2 | 0.00 | 1.68 | 1.68 | 99 | 1011.5 |
| 20260502030958 | 58 | 298 | 1.7 | 2.6 | 0.00 | 1.68 | 1.68 | 99 | 1011.2 |
| 20260502030456 | 58 | 30 | 7.0 | 8.7 | 0.07 | 1.68 | 1.68 | 99 | 1011.1 |
| 20260502025954 | 58 | 49 | 0.9 | 1.7 | 0.12 | 1.68 | 1.68 | 99 | 1011.3 |
| 20260502025451 | 58 | 14 | 5.2 | 7.0 | 0.05 | 1.67 | 1.67 | 99 | 1011.4 |
| 20260502024949 | 59 | 19 | 1.7 | 2.6 | 0.00 | 1.66 | 1.66 | 99 | 1011.2 |
| 20260502024447 | 59 | 8 | 4.3 | 5.2 | 0.00 | 1.66 | 1.66 | 99 | 1011.2 |
| 20260502023945 | 59 | 66 | 0.9 | 1.7 | 0.00 | 1.66 | 1.66 | 99 | 1011.4 |
| 20260502023442 | 59 | 48 | 3.5 | 4.3 | 0.07 | 1.66 | 1.66 | 99 | 1011.6 |
| 20260502022939 | 59 | 14 | 6.1 | 7.0 | 0.07 | 1.66 | 1.66 | 99 | 1011.5 |
| 20260502022435 | 59 | 30 | 4.3 | 6.1 | 0.00 | 1.65 | 1.65 | 99 | 1011.3 |
| 20260502021932 | 59 | 5 | 7.0 | 8.7 | 0.00 | 1.65 | 1.65 | 99 | 1011.3 |
| 20260502021430 | 59 | 8 | 3.5 | 4.3 | 0.05 | 1.65 | 1.65 | 99 | 1011.2 |
| 20260502020927 | 59 | 22 | 2.6 | 2.6 | 0.05 | 1.65 | 1.65 | 99 | 1011.0 |
| 20260502020425 | 59 | 22 | 2.6 | 2.6 | 0.00 | 1.64 | 1.64 | 99 | 1011.0 |
| 20260502015921 | 60 | 11 | 1.7 | 2.6 | 0.00 | 1.64 | 1.64 | 99 | 1010.8 |
| 20260502015419 | 60 | 48 | 2.6 | 2.6 | 0.07 | 1.64 | 1.64 | 99 | 1011.0 |
| 20260502014915 | 60 | 37 | 3.5 | 4.3 | 0.14 | 1.64 | 1.64 | 99 | 1011.0 |
| 20260502014412 | 60 | 19 | 3.5 | 4.3 | 0.24 | 1.63 | 1.63 | 99 | 1010.7 |
| 20260502013909 | 60 | 19 | 4.3 | 6.1 | 0.52 | 1.62 | 1.62 | 99 | 1010.5 |
| 20260502013404 | 60 | 35 | 2.6 | 4.3 | 0.47 | 1.59 | 1.59 | 99 | 1010.3 |
| 20260502012901 | 60 | 20 | 7.0 | 7.0 | 0.17 | 1.54 | 1.54 | 99 | 1010.2 |
| 20260502012359 | 60 | 0 | 3.5 | 5.2 | 0.07 | 1.51 | 1.51 | 99 | 1010.2 |
| 20260502011856 | 60 | 16 | 1.7 | 1.7 | 0.07 | 1.51 | 1.51 | 99 | 1009.5 |
| 20260502011352 | 60 | 109 | 0.9 | 0.9 | 0.12 | 1.50 | 1.50 | 99 | 1008.8 |
| 20260502010849 | 60 | 86 | 0.9 | 1.7 | 0.35 | 1.50 | 1.50 | 99 | 1009.2 |
| 20260502010346 | 60 | 86 | 1.7 | 1.7 | 0.52 | 1.49 | 1.49 | 99 | 1009.1 |
| 20260502005843 | 59 | 84 | 4.3 | 6.1 | 0.54 | 1.45 | 1.45 | 99 | 1009.0 |
| 20260502005341 | 60 | 359 | 2.6 | 5.2 | 0.42 | 1.39 | 1.39 | 99 | 1009.2 |
| 20260502004838 | 60 | 19 | 5.2 | 6.1 | 0.35 | 1.35 | 1.35 | 99 | 1009.6 |
| 20260502004333 | 60 | 11 | 2.6 | 4.3 | 0.24 | 1.31 | 1.31 | 99 | 1009.6 |
| 20260502003832 | 60 | 297 | 6.1 | 7.0 | 0.19 | 1.29 | 1.29 | 99 | 1008.8 |
| 20260502003328 | 60 | 5 | 7.0 | 13.0 | 0.07 | 1.27 | 1.27 | 99 | 1008.4 |
| 20260502002825 | 60 | 344 | 6.1 | 8.7 | 0.05 | 1.26 | 1.26 | 99 | 1008.0 |
| 20260502002322 | 60 | 327 | 7.0 | 9.6 | 0.05 | 1.26 | 1.26 | 99 | 1008.1 |
| 20260502001819 | 60 | 358 | 3.5 | 5.2 | 0.07 | 1.25 | 1.25 | 99 | 1007.7 |
| 20260502001317 | 61 | 17 | 8.7 | 8.7 | 0.07 | 1.25 | 1.25 | 99 | 1007.4 |
| 20260502000814 | 61 | 24 | 4.3 | 7.0 | 0.00 | 1.24 | 1.24 | 99 | 1007.1 |
| 20260502000312 | 61 | 359 | 8.7 | 11.3 | 0.00 | 1.24 | 1.24 | 99 | 1007.6 |
| 20260501235808 | 62 | 29 | 6.1 | 7.8 | 0.00 | 1.24 | 1.24 | 99 | 1008.1 |
| 20260501235305 | 62 | 22 | 6.1 | 7.0 | 0.07 | 1.24 | 1.24 | 99 | 1008.0 |
| 20260501234759 | 62 | 68 | 4.3 | 7.0 | 0.12 | 1.24 | 1.24 | 99 | 1008.0 |
| 20260501234257 | 62 | 78 | 2.6 | 2.6 | 0.05 | 1.23 | 1.23 | 99 | 1007.6 |
| 20260501233755 | 62 | 74 | 0.0 | 0.9 | 0.05 | 1.23 | 1.23 | 99 | 1007.3 |
| 20260501233252 | 62 | 357 | 0.0 | 0.9 | 0.00 | 1.22 | 1.22 | 99 | 1007.3 |
| 20260501232748 | 62 | 20 | 3.5 | 6.1 | 0.00 | 1.22 | 1.22 | 99 | 1007.2 |
| 20260501232245 | 62 | 43 | 4.3 | 5.2 | 0.00 | 1.22 | 1.22 | 99 | 1007.1 |
| 20260501231743 | 62 | 186 | 1.7 | 1.7 | 0.07 | 1.22 | 1.22 | 99 | 1006.9 |
| 20260501231241 | 62 | 37 | 3.5 | 5.2 | 0.19 | 1.22 | 1.22 | 99 | 1007.0 |
| 20260501230739 | 62 | 315 | 2.6 | 7.0 | 0.24 | 1.21 | 1.21 | 99 | 1006.7 |
| 20260501230237 | 62 | 95 | 1.7 | 4.3 | 0.17 | 1.19 | 1.19 | 99 | 1007.0 |
| 20260501225734 | 62 | 67 | 4.3 | 6.1 | 0.12 | 1.17 | 1.17 | 99 | 1007.3 |
| 20260501225231 | 62 | 140 | 0.9 | 1.7 | 0.07 | 1.16 | 1.16 | 99 | 1007.5 |
| 20260501224727 | 62 | 19 | 1.7 | 4.3 | 0.00 | 1.15 | 1.15 | 99 | 1007.5 |
| 20260501224225 | 62 | 100 | 2.6 | 2.6 | 0.00 | 1.15 | 1.15 | 99 | 1007.5 |
| 20260501223721 | 62 | 50 | 1.7 | 2.6 | 0.00 | 1.15 | 1.15 | 99 | 1007.8 |
| 20260501223218 | 62 | 106 | 0.0 | 0.0 | 0.00 | 1.15 | 1.15 | 99 | 1008.3 |
| 20260501222714 | 62 | 30 | 3.5 | 6.1 | 0.00 | 1.15 | 1.15 | 99 | 1008.4 |
| 20260501222211 | 62 | 8 | 2.6 | 6.1 | 0.00 | 1.15 | 1.15 | 99 | 1008.6 |
| 20260501221708 | 62 | 17 | 5.2 | 7.0 | 0.00 | 1.15 | 1.15 | 99 | 1008.4 |
| 20260501221205 | 62 | 104 | 0.0 | 0.9 | 0.00 | 1.15 | 1.15 | 99 | 1008.3 |
| 20260501220703 | 62 | 29 | 4.3 | 6.1 | 0.00 | 1.15 | 1.15 | 99 | 1008.2 |
| 20260501220200 | 62 | 58 | 2.6 | 4.3 | 0.05 | 1.15 | 1.15 | 99 | 1008.1 |
| 20260501215657 | 62 | 81 | 0.9 | 2.6 | 0.19 | 1.15 | 1.15 | 99 | 1007.8 |
| 20260501215152 | 62 | 63 | 1.7 | 1.7 | 0.50 | 1.14 | 1.14 | 99 | 1007.4 |
| 20260501214647 | 62 | 5 | 3.5 | 5.2 | 0.52 | 1.12 | 1.12 | 99 | 1007.2 |
| 20260501214142 | 62 | 112 | 0.0 | 0.0 | 0.31 | 1.07 | 1.07 | 99 | 1007.2 |
| 20260501213640 | 63 | 118 | 1.7 | 2.6 | 0.31 | 1.03 | 1.03 | 99 | 1007.5 |
| 20260501213136 | 63 | 167 | 0.9 | 1.7 | 0.31 | 1.01 | 1.01 | 99 | 1008.2 |
| 20260501212633 | 62 | 48 | 1.7 | 1.7 | 0.24 | 0.98 | 0.98 | 99 | 1007.4 |
| 20260501212129 | 62 | 53 | 4.3 | 6.1 | 0.47 | 0.96 | 0.96 | 99 | 1008.3 |
| 20260501211626 | 62 | 204 | 0.9 | 0.9 | 0.47 | 0.93 | 0.93 | 99 | 1008.2 |
| 20260501211124 | 63 | 53 | 3.5 | 5.2 | 0.31 | 0.88 | 0.88 | 99 | 1007.4 |
| 20260501210620 | 63 | 98 | 1.7 | 1.7 | 0.42 | 0.85 | 0.85 | 99 | 1008.1 |
| 20260501210117 | 63 | 66 | 2.6 | 4.3 | 0.35 | 0.83 | 0.83 | 99 | 1007.4 |
| 20260501205613 | 63 | 7 | 0.9 | 0.9 | 0.19 | 0.79 | 0.79 | 99 | 1007.2 |
| 20260501205111 | 63 | 91 | 0.0 | 0.9 | 0.19 | 0.77 | 0.77 | 99 | 1007.5 |
| 20260501204607 | 63 | 181 | 2.6 | 2.6 | 0.24 | 0.76 | 0.76 | 99 | 1007.4 |
| 20260501204103 | 63 | 23 | 1.7 | 2.6 | 0.26 | 0.75 | 0.75 | 99 | 1006.8 |
| 20260501203600 | 63 | 155 | 0.9 | 1.7 | 0.28 | 0.73 | 0.73 | 99 | 1006.6 |
| 20260501203058 | 63 | 80 | 3.5 | 5.2 | 0.24 | 0.71 | 0.71 | 99 | 1007.2 |
| 20260501202554 | 63 | 38 | 5.2 | 7.0 | 0.07 | 0.68 | 0.68 | 99 | 1007.6 |
| 20260501202051 | 63 | 64 | 0.9 | 1.7 | 0.05 | 0.67 | 0.67 | 99 | 1007.6 |
| 20260501201548 | 63 | 168 | 2.6 | 4.3 | 0.17 | 0.67 | 0.67 | 99 | 1006.7 |
| 20260501201044 | 63 | 150 | 4.3 | 5.2 | 0.31 | 0.66 | 0.66 | 99 | 1006.4 |
| 20260501200542 | 63 | 101 | 3.5 | 6.1 | 0.19 | 0.64 | 0.64 | 99 | 1006.0 |
| 20260501200039 | 63 | 67 | 1.7 | 1.7 | 0.05 | 0.62 | 0.62 | 99 | 1006.6 |
| 20260501195536 | 63 | 15 | 2.6 | 4.3 | 0.00 | 0.61 | 0.61 | 99 | 1007.3 |
| 20260501195031 | 63 | 19 | 3.5 | 5.2 | 0.07 | 0.61 | 0.61 | 99 | 1007.3 |
| 20260501194527 | 63 | 31 | 2.6 | 4.3 | 0.07 | 0.61 | 0.61 | 99 | 1007.2 |
| 20260501194023 | 63 | 302 | 1.7 | 2.6 | 0.05 | 0.60 | 0.60 | 99 | 1007.0 |
| 20260501193521 | 64 | 150 | 0.0 | 0.9 | 0.17 | 0.60 | 0.60 | 99 | 1006.9 |
| 20260501193020 | 64 | 98 | 2.6 | 2.6 | 0.47 | 0.59 | 0.59 | 99 | 1006.5 |
| 20260501192516 | 64 | 184 | 0.9 | 2.6 | 0.42 | 0.57 | 0.57 | 99 | 1007.0 |
| 20260501192014 | 64 | 142 | 0.9 | 0.9 | 0.19 | 0.53 | 0.53 | 99 | 1007.1 |
| 20260501191510 | 64 | 47 | 2.6 | 6.1 | 0.12 | 0.50 | 0.50 | 99 | 1007.3 |
| 20260501191008 | 64 | 96 | 1.7 | 1.7 | 0.19 | 0.50 | 0.50 | 99 | 1007.6 |
| 20260501190503 | 65 | 95 | 0.9 | 0.9 | 0.07 | 0.48 | 0.48 | 99 | 1007.0 |
| 20260501185959 | 65 | 335 | 1.7 | 1.7 | 0.05 | 0.47 | 0.47 | 99 | 1007.3 |
| 20260501185455 | 65 | 315 | 0.9 | 2.6 | 0.12 | 0.47 | 0.47 | 99 | 1007.6 |
| 20260501184951 | 65 | 34 | 6.1 | 8.7 | 0.19 | 0.46 | 0.46 | 99 | 1007.3 |
| 20260501184448 | 65 | 110 | 2.6 | 2.6 | 0.12 | 0.45 | 0.45 | 99 | 1007.3 |
| 20260501183942 | 65 | 48 | 1.7 | 1.7 | 0.00 | 0.43 | 0.43 | 99 | 1007.5 |
| 20260501183440 | 65 | 47 | 4.3 | 8.7 | 0.00 | 0.43 | 0.43 | 99 | 1007.3 |
| 20260501182936 | 65 | 79 | 5.2 | 7.0 | 0.00 | 0.43 | 0.43 | 99 | 1007.2 |
| 20260501182433 | 65 | 59 | 0.9 | 0.9 | 0.00 | 0.43 | 0.43 | 99 | 1007.5 |
| 20260501181930 | 65 | 146 | 1.7 | 1.7 | 0.00 | 0.43 | 0.43 | 99 | 1007.2 |
| 20260501181427 | 65 | 133 | 3.5 | 6.1 | 0.00 | 0.43 | 0.43 | 99 | 1007.1 |
| 20260501180924 | 65 | 41 | 2.6 | 6.1 | 0.00 | 0.43 | 0.43 | 99 | 1007.0 |
| 20260501180421 | 64 | 48 | 1.7 | 1.7 | 0.00 | 0.43 | 0.43 | 99 | 1007.1 |
| 20260501175917 | 64 | 34 | 3.5 | 6.1 | 0.00 | 0.43 | 0.43 | 99 | 1007.2 |
| 20260501175414 | 64 | 355 | 1.7 | 1.7 | 0.00 | 0.43 | 0.43 | 99 | 1007.4 |
| 20260501174911 | 64 | 103 | 2.6 | 4.3 | 0.00 | 0.43 | 0.43 | 99 | 1008.0 |
| 20260501174409 | 64 | 13 | 0.9 | 1.7 | 0.05 | 0.43 | 0.43 | 99 | 1008.0 |
| 20260501173906 | 64 | 57 | 0.9 | 1.7 | 0.05 | 0.43 | 0.43 | 99 | 1008.0 |
| 20260501173404 | 64 | 61 | 1.7 | 1.7 | 0.00 | 0.42 | 0.42 | 99 | 1008.4 |
| 20260501172859 | 64 | 25 | 2.6 | 4.3 | 0.00 | 0.42 | 0.42 | 99 | 1008.3 |
| 20260501172354 | 63 | 63 | 1.7 | 2.6 | 0.00 | 0.42 | 0.42 | 99 | 1008.2 |
| 20260501171850 | 63 | 12 | 4.3 | 7.8 | 0.00 | 0.42 | 0.42 | 99 | 1008.3 |
| 20260501171347 | 63 | 15 | 6.1 | 7.8 | 0.19 | 0.42 | 0.42 | 99 | 1008.5 |
| 20260501170843 | 63 | 65 | 1.7 | 2.6 | 0.38 | 0.42 | 0.42 | 99 | 1008.3 |
| 20260501170341 | 64 | 349 | 6.1 | 7.8 | 0.19 | 0.39 | 0.39 | 99 | 1009.8 |
| 20260501165838 | 65 | 328 | 10.4 | 12.2 | 0.24 | 0.37 | 0.37 | 99 | 1010.6 |
| 20260501165336 | 65 | 314 | 2.6 | 2.6 | 0.40 | 0.36 | 0.36 | 99 | 1009.5 |
| 20260501164833 | 65 | 46 | 1.7 | 1.7 | 0.12 | 0.31 | 0.31 | 99 | 1008.1 |
| 20260501164331 | 65 | 10 | 1.7 | 2.6 | 0.07 | 0.29 | 0.29 | 99 | 1008.0 |
| 20260501163827 | 65 | 2 | 0.9 | 0.9 | 0.07 | 0.29 | 0.29 | 99 | 1007.9 |